Salinas, CA

3:34 AM PDT on June 21, 2018 (GMT -0700)
Salinas Municipal

Weather History for KSNS - October, 2017

Change the Weather History Date:

Sunday, October 8, 2017

  Actual Average Record
Temperature  
Mean Temperature 63 °F 62 °F  
Max Temperature 74 °F 74 °F 97 °F (1936)
Min Temperature 51 °F 51 °F 39 °F (1968)
Degree Days  
Heating Degree Days 2 4  
Month to date heating degree days 23 25  
Since 1 July heating degree days 144 220  
Cooling Degree Days 0 1  
Month to date cooling degree days 2 8  
Year to date cooling degree days 215 113  
Growing Degree Days 14 (Base 50)    
Moisture  
Dew Point 50 °F    
Average Humidity 69    
Maximum Humidity 93    
Minimum Humidity 44    
Precipitation  
Precipitation 0.00 in 0.01 in 0.28 in (1973)
Month to date precipitation 0.00 0.10  
Year to date precipitation 12.49 9.02  
Sea Level Pressure  
Sea Level Pressure 29.82 in    
Wind  
Wind Speed 6 mph (WNW)    
Max Wind Speed 15 mph    
Max Gust Speed 17 mph    
Visibility 8 miles    
Events      
T = Trace of Precipitation, MM = Missing Value Source: NWS Daily Summary

Daily Weather History Graph

Daily Weather History Graph

Search for Another Location

Airport or City:

Astronomy

Oct. 08, 2017 Rise Set
Actual Time 7:07 AM PDT 6:39 PM PDT
Civil Twilight 6:42 AM PDT 7:05 PM PDT
Nautical Twilight 6:12 AM PDT 7:34 PM PDT
Astronomical Twilight 5:42 AM PDT 8:04 PM PDT
Moon 9:09 PM PDT (10/8) 10:12 AM PDT (10/8)
Length of Visible Light 12h 22m
Length of Day
11h 31m
Waning Gibbous, 88% of the Moon is Illuminated
Oct 8
Waning Gibbous
Oct 12
Last Quarter
Oct 19
New
Oct 27
First Quarter
Nov 3
Full

Hourly Weather History & Observations

Time (PDT) Temp. Dew Point Humidity Pressure Visibility Wind Dir Wind Speed Gust Speed Precip Events Conditions
12:53 AM 55.9 °F 52.0 °F 87% 29.86 in 8.0 mi NW 8.1 mph - N/A   Clear
1:53 AM 55.9 °F 52.0 °F 87% 29.87 in 7.0 mi West 8.1 mph - N/A   Partly Cloudy
2:53 AM 55.0 °F 51.1 °F 86% 29.86 in 7.0 mi NW 8.1 mph - N/A   Clear
3:53 AM 55.0 °F 50.0 °F 83% 29.85 in 7.0 mi NW 4.6 mph - N/A   Clear
4:53 AM 54.0 °F 50.0 °F 86% 29.83 in 7.0 mi NW 4.6 mph - N/A   Clear
5:53 AM 54.0 °F 50.0 °F 86% 29.83 in 7.0 mi WNW 5.8 mph - N/A   Clear
6:43 AM 54.0 °F 50.0 °F 86% 29.81 in 7.0 mi NW 4.6 mph - N/A   Mostly Cloudy
6:53 AM 54.0 °F 50.0 °F 86% 29.84 in 7.0 mi WNW 4.6 mph - N/A   Overcast
7:53 AM 54.0 °F 50.0 °F 86% 29.84 in 5.0 mi West 4.6 mph - N/A   Mostly Cloudy
8:05 AM 54.0 °F 50.0 °F 86% 29.81 in 5.0 mi WNW 6.9 mph - N/A   Overcast
8:53 AM 54.0 °F 51.1 °F 90% 29.85 in 5.0 mi Calm Calm - N/A   Overcast
9:50 AM 57.2 °F 51.8 °F 82% 29.82 in 6.0 mi Calm Calm - N/A   Scattered Clouds
9:53 AM 55.9 °F 52.0 °F 87% 29.85 in 6.0 mi Calm Calm - N/A   Partly Cloudy
10:53 AM 61.0 °F 51.1 °F 70% 29.83 in 8.0 mi ESE 6.9 mph - N/A   Clear
11:53 AM 66.9 °F 51.1 °F 57% 29.81 in 10.0 mi ENE 3.5 mph - N/A   Clear
12:53 PM 73.9 °F 50.0 °F 43% 29.80 in 10.0 mi West 5.8 mph - N/A   Clear
1:53 PM 69.1 °F 54.0 °F 58% 29.79 in 9.0 mi West 12.7 mph - N/A   Clear
2:53 PM 69.1 °F 52.0 °F 54% 29.78 in 9.0 mi West 13.8 mph - N/A   Clear
3:53 PM 69.1 °F 52.0 °F 54% 29.78 in 8.0 mi WNW 11.5 mph - N/A   Clear
4:53 PM 66.9 °F 51.1 °F 57% 29.78 in 9.0 mi West 9.2 mph - N/A   Clear
5:53 PM 66.9 °F 50.0 °F 54% 29.78 in 9.0 mi WNW 8.1 mph - N/A   Clear
6:53 PM 64.0 °F 50.0 °F 60% 29.78 in 9.0 mi NW 8.1 mph - N/A   Clear
7:53 PM 63.0 °F 50.0 °F 63% 29.79 in 9.0 mi NW 8.1 mph - N/A   Clear
8:53 PM 61.0 °F 48.9 °F 64% 29.79 in 9.0 mi SSW 3.5 mph - N/A   Clear
9:53 PM 57.0 °F 48.0 °F 72% 29.81 in 9.0 mi Calm Calm - N/A   Clear
10:53 PM 55.0 °F 46.9 °F 74% 29.82 in 9.0 mi Calm Calm - N/A   Clear
11:53 PM 53.1 °F 46.9 °F 80% 29.83 in 9.0 mi Calm Calm - N/A   Clear